Location: Saluda
(35.2377°N, 82.3468°W)
Time: 14:51:50
(UTC+00:00)

SR - Pass Details

Date: 14 October 2022
Orbit: 577 x 875 km, 66.7° (Epoch: 28 November)

Event Time Altitude Azimuth Distance (km) Brightness Sun altitude
Rises 09:34:00 0° 322° (NW) 3,204 - -25.4°
Reaches altitude 10° 09:36:42 10° 312° (NW) 2,222 - -24.8°
Maximum altitude 09:41:03 30° 252° (WSW) 1,214 - -23.9°
Drops below altitude 10° 09:45:06 10° 191° (S) 2,045 - -23.1°
Exits shadow 09:46:38 - 183° (S) 2,583 ? -22.8°
Sets 09:47:30 0° 180° (S) 2,906 ? -22.6°
